This is the latest recevied weather packets stored in our database for station/object HB9GFF-10. If no packets are shown the sender has not sent any weather packets the latest 10 day(s).
| Time | Temp. | Humidity | Pressure | Rain* | Wind** | Luminosity | Snow |
|---|---|---|---|---|---|---|---|
| 1778328305 | 23.33° C | 48% | 953 hPa | - | - | - | - |
| 1778328240 | 23.33° C | 51% | 953 hPa | - | - | - | - |
| 1778328174 | 23.33° C | 49% | 953 hPa | - | - | - | - |
| 1778328109 | 23.33° C | 50% | 953 hPa | - | - | - | - |
| 1778328043 | 23.33° C | 48% | 953 hPa | - | - | - | - |
| 1778327978 | 23.33° C | 46% | 953 hPa | - | - | - | - |
| 1778327913 | 23.33° C | 48% | 953 hPa | - | - | - | - |
| 1778327847 | 22.78° C | 48% | 953 hPa | - | - | - | - |
| 1778327782 | 23.33° C | 45% | 953 hPa | - | - | - | - |
| 1778327716 | 23.33° C | 46% | 953 hPa | - | - | - | - |
| 1778327651 | 23.33° C | 55% | 953 hPa | - | - | - | - |
| 1778327586 | 23.33° C | 49% | 953 hPa | - | - | - | - |
| 1778327520 | 22.22° C | 47% | 953 hPa | - | - | - | - |
| 1778327455 | 22.78° C | 45% | 953 hPa | - | - | - | - |
| 1778327389 | 23.89° C | 52% | 953 hPa | - | - | - | - |
| 1778327324 | 23.33° C | 49% | 953 hPa | - | - | - | - |
| 1778327259 | 23.89° C | 48% | 953 hPa | - | - | - | - |
| 1778327193 | 23.89° C | 51% | 953 hPa | - | - | - | - |
| 1778327128 | 23.33° C | 52% | 953 hPa | - | - | - | - |
| 1778327062 | 23.33° C | 49% | 953 hPa | - | - | - | - |
| 1778326997 | 23.33° C | 45% | 953 hPa | - | - | - | - |
| 1778326932 | 23.33° C | 46% | 953 hPa | - | - | - | - |
| 1778326866 | 22.78° C | 45% | 953 hPa | - | - | - | - |
| 1778326801 | 23.33° C | 50% | 953 hPa | - | - | - | - |
| 1778326735 | 23.33° C | 48% | 953 hPa | - | - | - | - |
* Rain since midnight (hover to see other rain measurements)
** Current wind speed in m/s (hover to see current wind gust speed)